This demonstration page uses our WeatherBlox Daily Observations layout. Learn more.

Left ArrowRight Arrow

39.51506, -84.39828

Hourly Observations for June 17, 2019

Temp ( °F °C ) Dew Point ( °F °C ) Humidity (%) Winds ( mph kmh ) Pressure ( in mb ) Visibility ( mi km ) Precip ( " mm )
12:15 am 00:15 Cloudy with Light Rain 69 20.8 68 20 95 95 SSW 7 11 29.92 1013 10 16 0.01 0.25
12:35 am 00:35 Cloudy with Light Rain 69 20.6 68 19.8 95 95 SSW 10 17 29.91 1013 10 16 0.03 0.76
12:55 am 00:55 Cloudy 69 20.6 68 19.8 95 95 SW 7 11 29.91 1013 10 16 0.03 0.76
1:15 am 01:15 Cloudy 69 20.4 67 19.6 95 95 WSW 8 13 29.90 1013 10 16 N/A
1:35 am 01:35 Mostly Cloudy 68 20.1 67 19.3 95 95 W 6 9 29.90 1013 10 16 N/A
1:55 am 01:55 Partly Cloudy 68 19.8 67 19.2 96 96 SW 6 9 29.92 1013 10 16 N/A
2:15 am 02:15 Partly Cloudy 68 19.8 67 19.2 96 96 SW 5 7 29.92 1013 10 16 N/A
2:35 am 02:35 Mostly Cloudy 68 19.8 67 19.2 96 96 N N/A 29.92 1013 10 16 N/A
2:55 am 02:55 Cloudy 68 20 67 19.4 96 96 SSW 6 9 29.92 1013 10 16 N/A
3:15 am 03:15 Cloudy 68 19.9 67 19.3 96 96 N N/A 29.91 1013 7 11 N/A
3:35 am 03:35 Cloudy 67 19.7 67 19.2 97 97 SW 3 6 29.92 1013 10 16 N/A
3:55 am 03:55 Cloudy 68 19.8 67 19.3 97 97 S 5 7 29.92 1013 10 16 N/A
4:15 am 04:15 Cloudy 68 19.8 66 19.1 96 96 N N/A 29.91 1013 10 16 N/A
4:35 am 04:35 Cloudy 67 19.6 66 18.9 96 96 SSW 3 6 29.92 1013 10 16 N/A
4:55 am 04:55 Cloudy 67 19.5 66 18.9 96 96 SW 3 6 29.92 1013 10 16 N/A
5:15 am 05:15 Cloudy 67 19.6 66 19 96 96 SSW 7 11 29.93 1013 10 16 N/A
5:35 am 05:35 Cloudy 67 19.6 66 18.9 96 96 SSW 5 7 29.93 1013 10 16 N/A
5:55 am 05:55 Cloudy 67 19.6 66 19 96 96 S 6 9 29.94 1014 10 16 N/A
6:15 am 06:15 Cloudy 67 19.6 66 19.1 97 97 WSW 6 9 29.95 1014 7 11 N/A
6:35 am 06:35 Cloudy 67 19.6 66 19 96 96 SW 6 9 29.96 1014 7 11 N/A
6:55 am 06:55 Cloudy 67 19.7 67 19.2 97 97 SW 3 6 29.96 1014 7 11 N/A
7:15 am 07:15 Cloudy 68 19.8 67 19.3 97 97 WSW 5 7 29.97 1015 7 11 N/A
7:35 am 07:35 Cloudy 68 20 67 19.3 96 96 SW 5 7 29.96 1015 10 16 N/A
7:55 am 07:55 Cloudy 68 19.9 67 19.2 96 96 SW 3 6 29.96 1015 10 16 N/A
8:15 am 08:15 Cloudy 68 19.9 67 19.2 96 96 S 5 7 29.97 1015 10 16 N/A
8:35 am 08:35 Cloudy 68 20.2 67 19.4 95 95 SSW 7 11 29.97 1015 10 16 N/A
8:55 am 08:55 Cloudy 69 20.7 67 19.7 94 94 SSW 8 13 29.97 1015 10 16 N/A
9:15 am 09:15 Cloudy 70 21 67 19.7 92 92 SSW 8 13 29.97 1015 10 16 N/A
9:35 am 09:35 Cloudy 70 21.3 68 20 92 92 SW 3 6 29.97 1015 10 16 N/A
9:55 am 09:55 Cloudy 70 21.2 67 19.7 91 91 SSW 9 15 29.98 1015 10 16 N/A
10:15 am 10:15 Cloudy 71 21.7 68 19.9 90 90 SSW 8 13 29.98 1015 10 16 N/A
10:35 am 10:35 Cloudy 71 21.6 68 19.8 90 90 SSW 8 13 29.98 1015 10 16 N/A
10:55 am 10:55 Cloudy 72 22.1 68 20 88 88 SW 7 11 29.99 1016 10 16 N/A
11:15 am 11:15 Cloudy 73 22.6 68 20.1 86 86 SSW 7 11 29.99 1016 10 16 N/A
11:35 am 11:35 Cloudy 73 22.7 68 20.2 86 86 SSW 7 11 29.99 1016 10 16 N/A
11:55 am 11:55 Cloudy 72 22.4 68 20.2 87 87 SW 6 9 29.99 1016 10 16 N/A
12:15 pm 12:15 Cloudy 74 23.2 69 20.4 84 84 SSW 6 9 29.99 1015 10 16 N/A
12:35 pm 12:35 Cloudy with Light Rain 73 23 69 20.5 86 86 S 5 7 29.99 1015 10 16 N/A
12:55 pm 12:55 Mostly Cloudy 74 23.1 69 20.5 85 85 WSW 7 11 29.99 1015 10 16 N/A
1:15 pm 13:15 Cloudy 74 23.2 69 20.6 85 85 WSW 6 9 29.99 1015 10 16 N/A
1:35 pm 13:35 Mostly Cloudy 76 24.2 69 20.7 81 81 SW 3 6 29.97 1015 10 16 N/A
1:55 pm 13:55 Partly Cloudy 76 24.2 69 20.5 80 80 W 3 6 29.96 1015 10 16 N/A
2:15 pm 14:15 Partly Cloudy 76 24.7 70 20.9 79 79 N N/A 29.96 1015 10 16 N/A
2:35 pm 14:35 Mostly Cloudy 77 25.1 70 20.9 78 78 NNW 3 6 29.95 1014 10 16 N/A
2:55 pm 14:55 Partly Cloudy 78 25.3 70 21.1 78 78 N N/A 29.95 1014 10 16 N/A
3:15 pm 15:15 Partly Cloudy 78 25.7 70 21.2 76 76 NW 5 7 29.95 1014 10 16 N/A
3:35 pm 15:35 Cloudy 77 25.2 69 20.8 77 77 NNW 5 7 29.94 1014 10 16 N/A
3:55 pm 15:55 Mostly Cloudy 79 25.9 70 21.2 75 75 WNW 3 6 29.93 1014 10 16 N/A
4:15 pm 16:15 Partly Cloudy 79 26.1 69 20.8 73 73 NNW 5 7 29.93 1014 10 16 N/A
4:35 pm 16:35 Partly Cloudy 79 26.2 70 21.3 74 74 N N/A 29.92 1013 10 16 N/A
4:55 pm 16:55 Mostly Cloudy 78 25.4 71 21.5 79 79 N N/A 29.92 1013 10 16 N/A
5:15 pm 17:15 Sunny with Rain 76 24.3 71 21.8 86 86 N N/A 29.91 1013 4 6 0.03 0.76
5:35 pm 17:35 Mostly Cloudy with Light Rain 74 23.5 72 22.3 93 93 N 5 7 29.92 1013 7 11 0.05 1.27
5:55 pm 17:55 Partly Cloudy with Nearby Thunderstorms 75 23.8 72 22.2 91 91 NNE 7 11 29.90 1012 10 16 0.05 1.27
6:15 pm 18:15 Mostly Cloudy 75 23.9 72 22.2 90 90 E 6 9 29.90 1012 10 16 N/A
6:35 pm 18:35 Cloudy with Nearby Thunderstorms 74 23.5 72 22.1 92 92 ENE 6 9 29.90 1012 10 16 N/A
6:55 pm 18:55 Cloudy with Thunderstorms 71 21.7 67 19.5 87 87 NNW 14 22 29.92 1013 10 16 N/A
7:15 pm 19:15 Cloudy with Strong Thunderstorms 67 19.5 66 18.8 96 96 NNE 3 6 29.95 1014 1 1 0.88 22.35
7:35 pm 19:35 Cloudy with Thunderstorms 67 19.2 66 18.9 98 98 N 7 11 29.94 1014 4 6 1.03 26.16
7:55 pm 19:55 Cloudy with Nearby Thunderstorms 67 19.3 66 19 98 98 W 6 9 29.95 1014 5 8 1.08 27.43
8:15 pm 20:15 Cloudy with Nearby Thunderstorms 67 19.5 67 19.2 98 98 N N/A 29.96 1014 3 4 0.13 3.30
8:35 pm 20:35 Cloudy with Nearby Thunderstorms 67 19.5 67 19.2 98 98 ENE 8 13 29.94 1014 3 5 0.20 5.08
8:55 pm 20:55 Mostly Cloudy with Mist and Fog 67 19.3 66 19 98 98 E 6 9 29.92 1013 5 8 0.25 6.35
9:15 pm 21:15 Clear with Thunderstorms 65 18.6 65 18.3 98 98 W 3 6 29.93 1013 10 16 N/A
9:35 pm 21:35 Mostly Cloudy 66 18.9 66 18.7 99 99 W 5 7 29.94 1014 10 16 N/A
9:55 pm 21:55 Cloudy 67 19.3 66 19.1 99 99 SW 3 6 29.95 1014 10 16 N/A
10:15 pm 22:15 Cloudy with Mist and Fog 67 19.5 67 19.3 99 99 WSW 3 6 29.95 1014 3 5 N/A
10:35 pm 22:35 Cloudy with Mist and Fog 67 19.4 67 19.2 99 99 W 3 6 29.96 1014 4 6 N/A
10:55 pm 22:55 Cloudy with Mist and Fog 67 19.2 66 19.1 99 99 N N/A 29.97 1015 3 4 N/A
11:15 pm 23:15 Cloudy with Mist and Fog 67 19.2 66 19.1 99 99 N N/A 29.97 1015 3 5 N/A
11:35 pm 23:35 Cloudy 66 19 66 18.9 99 99 N N/A 29.98 1015 7 11 N/A
11:55 pm 23:55 Cloudy 66 19 66 18.9 99 99 N N/A 29.98 1015 7 11 N/A

Powered by AerisWeather